Overview Statistics Trail Chart Weather Telemetry Raw packets
 

This is the latest recevied weather packets stored in our database for station/object N5TDX. If no packets are shown the sender has not sent any weather packets the latest 10 day(s).

<< 16 17 18 19 20 21 22 >>
Time Temp. Humidity Pressure Rain* Wind** Luminosity Snow
1788549673 37.22° C 38% 1010.1 hPa 0 mm - - -
1788549369 37.22° C 39% 1010.5 hPa 0 mm - - -
1788549066 37.22° C 39% 1010.2 hPa 0 mm - - -
1788548761 36.67° C 39% 1010.5 hPa 0 mm - - -
1788548458 36.67° C 41% 1010.5 hPa 0 mm - - -
1788548154 36.67° C 40% 1010.6 hPa 0 mm - - -
1788547854 36.67° C 39% 1010.6 hPa 0 mm - - -
1788547548 36.67° C 41% 1010.9 hPa 0 mm - - -
1788547243 36.11° C 41% 1010.8 hPa 0 mm - - -
1788546943 36.11° C 42% 1010.9 hPa 0 mm - - -
1788546639 35.56° C 43% 1011.2 hPa 0 mm - - -
1788546335 35.56° C 43% 1011 hPa 0 mm - - -
1788546029 35.56° C 41% 1011.2 hPa 0 mm - - -
1788545725 36.11° C 41% 1011.2 hPa 0 mm - - -
1788545425 35° C 42% 1011.5 hPa 0 mm - - -
1788545125 35.56° C 41% 1011.3 hPa 0 mm - - -
1788544821 35° C 43% 1011.3 hPa 0 mm - - -
1788544520 34.44° C 45% 1011.7 hPa 0 mm - - -
1788544219 34.44° C 46% 1011.3 hPa 0 mm - - -
1788543914 34.44° C 46% 1011.5 hPa 0 mm - - -
1788543611 34.44° C 47% 1011.7 hPa 0 mm - - -
1788543311 35° C 45% 1011.7 hPa 0 mm - - -
1788543006 34.44° C 46% 1011.8 hPa 0 mm - - -
1788542702 34.44° C 49% 1011.7 hPa 0 mm - - -
1788542401 33.33° C 50% 1011.9 hPa 0 mm - - -

* Rain latest hour (hover to see other rain measurements)
** Current wind speed in m/s (hover to see current wind gust speed)